User: anonymous   Login
Location: Vancouver
(49.2500°N, 123.1330°W)
Time: 06:11:56
(UTC-08:00)
Language:

ERS-2 - Orbit

View from above orbital plane
View from above orbital plane
View from above satellite
View from above satellite

Ground track
Ground track

The orbit data is extracted from the following two-line orbital elements,

1 23560U 95021A   17021.99629387  .00001293  00000-0  63797-4 0  9998
2 23560  98.5413 354.8672 0005077  83.2172 276.9637 15.20133709153173
Epoch (UTC): 21 January 2017 23:54:39
Eccentricity: 0.0005077
inclination: 98.5413°
perigee height: 502 km
apogee height: 509 km
right ascension of ascending node: 354.8672°
argument of perigee: 83.2172°
revolutions per day: 15.20133709
mean anomaly at epoch: 276.9637°
orbit number at epoch: 15317

The dashed part of the orbit path shows where the satellite is in the earth's shadow,  

DLR